Regional Weather Roundup
Issued by NWS

Home | Current Version | Previous Version | Graphics & Text | Print | Product List | Glossary On
Versions: 1 2 3 4 5 6 7 8 9 10 11 12 13 14 15 16 17 18 19 20 21 22 23 24 25 26 27 28 29 30 31 32 33 34 35 36 37 38 39 40 41 42 43 44 45 46 47 48 49 50
000
ASUS43 KOAX 212110
RWRNE

WEATHER ROUNDUP FOR NEBRASKA
NATIONAL WEATHER SERVICE OMAHA NE
300 PM CST SAT JAN 21 2017

NOTES: SATELLITE DATA IS BEING USED TO AUGMENT CLOUD COVER ABOVE
       12000 FEET.
       "FAIR" INDICATES FEW OR NO CLOUDS BELOW 12,000 FEET WITH NO
       SIGNIFICANT WEATHER AND/OR OBSTRUCTIONS TO VISIBILITY.

  * THESE STATIONS DO NOT REPORT WEATHER SUCH AS RAIN...SNOW OR FOG.

NEZ001>004-019>022-054>056-212200-
NEBRASKA PANHANDLE

CITY           SKY/WX    TMP DP  RH WIND       PRES   REMARKS
SCOTTSBLUFF    CLOUDY    43  27  53 CALM      29.39F
ALLIANCE       SUNNY     45  27  49 W8        29.39S
CHADRON        SUNNY     37  28  70 NE3       29.42S
KIMBALL        CLOUDY    39  28  65 S5        29.40R
SIDNEY         CLOUDY    41  24  51 S8        29.40S
$$

NEZ057>060-069>072-079>082-212200-
SOUTHWEST NEBRASKA

CITY           SKY/WX    TMP DP  RH WIND       PRES   REMARKS
NORTH PLATTE   SUNNY     48  31  51 W6        29.42S
IMPERIAL       CLOUDY    47  27  45 CALM      29.41R
LEXINGTON      SUNNY     49  34  57 CALM      29.41S
MCCOOK         SUNNY     52  30  43 N3        29.42R
OGALLALA       SUNNY     47  27  45 CALM      29.41S
$$

NEZ005>010-023>029-035>040-094-212200-
NORTH CENTRAL NEBRASKA

CITY           SKY/WX    TMP DP  RH WIND       PRES   REMARKS
VALENTINE      CLOUDY    43  30  60 NW10      29.42R
AINSWORTH      CLOUDY    46  33  60 NW10G16   29.41R
BROKEN BOW     SUNNY     49  37  63 S6        29.41R
O`NEILL        SUNNY     50  31  47 W10G16    29.41R
ORD            SUNNY     49  34  56 SW8       29.41S
THEDFORD       SUNNY     49  33  54 W7        29.41R
$$

NEZ041-046>049-061>064-073>077-083>087-212200-
SOUTH CENTRAL NEBRASKA

CITY           SKY/WX    TMP DP  RH WIND       PRES   REMARKS
GRAND ISLAND   MOSUNNY   50  38  63 S6        29.42F
AURORA         SUNNY     50  38  62 S8        29.42F
HASTINGS       SUNNY     50  39  66 SW6       29.43F
HEBRON         SUNNY     52  39  62 SW6       29.44R
HOLDREGE       SUNNY     49  36  62 CALM      29.41S
KEARNEY *      SUNNY    N/A N/A N/A MISG        N/A
YORK           SUNNY     50  41  71 SW7       29.43F
$$

NEZ011>018-030>034-042>045-212200-
NORTHEAST NEBRASKA

CITY           SKY/WX    TMP DP  RH WIND       PRES   REMARKS
NORFOLK        SUNNY     48  34  58 W9        29.42R
ALBION         SUNNY     49  12  22 W7        29.42R
BLAIR          MOSUNNY   49  40  72 SW10      29.43S
FREMONT        SUNNY     50  39  66 W7        29.44S
TEKAMAH        MOSUNNY   48  39  71 SW9       29.44R
WAYNE          CLOUDY    46  37  69 W12       29.42R
$$

NEZ050>053-065>068-078-088>093-212200-
SOUTHEAST NEBRASKA

CITY           SKY/WX    TMP DP  RH WIND       PRES   REMARKS
LINCOLN        SUNNY     52  37  56 W9        29.45S
OMAHA EPPLEY   MOSUNNY   51  38  60 SW9       29.44R
BEATRICE       SUNNY     53  41  63 W3        29.44S
FALLS CITY     SUNNY     54  39  57 SW5       29.45R
NEBRASKA CITY  SUNNY     52  37  58 W9        29.44S
PLATTSMOUTH    MOSUNNY   51  38  60 SW12      29.44S
$$

NEZ044-045-051>053-067-212200-
OMAHA AREA

CITY           SKY/WX    TMP DP  RH WIND       PRES   REMARKS
OMAHA EPPLEY   MOSUNNY   51  38  60 SW9       29.44R
BLAIR          MOSUNNY   49  40  72 SW10      29.43S
FREMONT        SUNNY     50  39  66 W7        29.44S
MILLARD        SUNNY     53  40  61 SW12      29.44S
OFFUTT AFB     SUNNY     52  42  70 SW10      29.43S
PLATTSMOUTH    MOSUNNY   51  38  60 SW12      29.44S
WAHOO          FAIR      51  38  62 SW10      29.44R
$$




USA.gov is the U.S. government's official web portal to all federal, state and local government web resources and services.